Location: Newark
(3.0500°N, 36.0167°E)
Time: 07:31:13
(UTC+00:00)

S-56A Canister/Altair - Visible Passes

Search period start: 25 August 2019 00:00
Search period end: 04 September 2019 00:00
Orbit: 633 x 2499 km, 38.9° (Epoch: 24 August)

Date Brightness Start Highest point End Pass type
(mag) Time Alt. Az. Time Alt. Az. Time Alt. Az.
25 Aug 8.7 01:27:22 47° NNW 01:29:52 75° NE 01:40:39 10° SE visible
25 Aug 10.8 16:28:53 10° NW 16:30:15 11° NW 16:31:32 10° NNW visible
26 Aug 8.8 00:57:30 61° ENE 00:57:30 61° ENE 01:06:52 10° ESE visible
26 Aug 9.8 02:55:01 10° W 03:02:26 34° SW 03:12:54 10° SSE visible
27 Aug 9.8 00:27:33 33° E 00:27:33 33° E 00:33:03 10° ESE visible
27 Aug 9.4 02:25:04 24° W 02:29:14 38° SW 02:39:29 10° SSE visible
27 Aug 10.7 23:57:31 16° ESE 23:57:31 16° ESE 23:59:15 10° ESE visible
28 Aug 8.9 01:55:01 40° SW 01:56:07 42° SW 02:06:03 10° SSE visible
29 Aug 9.2 01:24:52 43° S 01:24:52 43° S 01:32:38 10° SE visible
30 Aug 9.9 00:54:37 28° SSE 00:54:37 28° SSE 00:59:15 10° SE visible
30 Aug 10.3 02:52:26 10° SW 02:56:45 14° SSW 03:01:51 10° S visible
31 Aug 10.7 00:24:15 16° SE 00:24:15 16° SE 00:25:52 10° SE visible
31 Aug 10.2 02:21:43 15° SW 02:23:28 15° SSW 02:28:53 10° S visible
01 Sep 10.2 01:51:16 17° SSW 01:51:16 17° SSW 01:55:54 10° S visible
02 Sep 10.5 01:20:43 14° S 01:20:43 14° S 01:22:55 10° S visible
